Regional Weather Roundup
Issued by NWS

Home | Current Version | Previous Version | Text Only | Print | Product List | Glossary On
Versions: 1 2 3 4 5 6 7 8 9 10 11 12 13 14 15 16 17 18 19 20 21 22 23 24 25 26 27 28 29 30 31 32 33 34 35 36 37 38 39 40 41 42 43 44 45 46 47 48 49 50
000
ASUS43 KTOP 281308
RWRKS

WEATHER ROUNDUP FOR KANSAS
NATIONAL WEATHER SERVICE GOODLAND KS
800 AM CDT THU JUL 28 2016

NOTE:  "FAIR" INDICATES FEW OR NO CLOUDS BELOW 12,000 FEET WITH NO
SIGNIFICANT WEATHER AND/OR OBSTRUCTIONS TO VISIBILITY.

KSZ001>006-013>018-027>032-041>047-281400-
NORTHWEST KANSAS

CITY           SKY/WX    TMP DP  RH WIND       PRES   REMARKS
GOODLAND       MOSUNNY   67  54  63 S13       30.10R
HAYS           CLOUDY    70  57  64 N3        30.08F
HILL CITY      CLOUDY    69  67  93 E7        30.08R
RUSSELL        CLOUDY    72  64  76 NW8       30.06S
$$

KSZ061>065-074>080-084>089-281400-
SOUTHWEST KANSAS

CITY           SKY/WX    TMP DP  RH WIND       PRES   REMARKS
DODGE CITY     SUNNY     67  61  81 NW14      30.11R
ELKHART          N/A     67  60  78 S2          N/A
GARDEN CITY    MOSUNNY   67  60  78 NE8       30.13F
GREAT BEND     PTSUNNY   70  59  68 N10       30.05F
LIBERAL        CLOUDY    70  57  64 N16G22    30.18R
PRATT          CLOUDY    67  59  74 NW14G20   29.98F
$$

KSZ066>073-081>083-090>101-281400-
SOUTHEAST KANSAS

CITY           SKY/WX    TMP DP  RH WIND       PRES   REMARKS
CHANUTE        SUNNY     77  74  90 NW8       29.98R
COFFEYVILLE    SUNNY     77  75  93 CALM      29.98R
HUTCHINSON     CLOUDY    76  66  71 NW14      30.02S
MEDICINE LODGE   N/A     80  54  40 NE12      29.97F
NEWTON         CLOUDY    77  73  87 NW5       30.03S
PARSONS        MOSUNNY   77  75  93 CALM      29.99R
WICHITA INTL   PTSUNNY   80  71  74 NW10      30.00F
WICHITA JABRA  MOSUNNY   78  72  81 W8        30.02R
WICHITA MCCONL MOSUNNY   79  70  73 NW6       30.01S
WINFIELD       SUNNY     75  72  90 CALM      30.02R
$$

KSZ007>012-019>026-033>040-048>060-102>105-281400-
NORTHEAST KANSAS

CITY           SKY/WX    TMP DP  RH WIND       PRES   REMARKS
CONCORDIA      PTSUNNY   71  64  78 NE7       30.05R
EMPORIA        CLOUDY    74  72  93 NW6       30.01R
LAWRENCE       CLOUDY    73  71  93 NW3       29.98S
MANHATTAN      MOSUNNY   75  70  84 N5        30.02R
MARYSVILLE     SUNNY     70  66  88 N5        30.04S
OLATHE IND     SUNNY     74  72  93 NW5       29.99R
OLATHE EXE     CLOUDY    74  71  91 NW5       29.98S
SALINA         MOSUNNY   77  70  79 N5        30.02F
TOPEKA BILLARD MOSUNNY   75  70  84 W3        30.00R
TOPEKA FORBES  SUNNY     76  71  85 NW6       30.00R
$$




USA.gov is the U.S. government's official web portal to all federal, state and local government web resources and services.